Location: *
(55.5817°S, 142.4781°W)
Time: 07:28:51
(UTC+00:00)

BREEZE-M DEB (TANK) - Pass Details

Date: 29 April 2025
Orbit: 302 x 18430 km, 52.7° (Epoch: 23 May)

Event Time Altitude Azimuth Distance (km) Brightness Sun altitude
Exits shadow 15:34:00 12° 263° (W) 6,369 7.5 -11.1°
Maximum altitude 15:47:03 64° 339° (NNW) 1,173 4.4 -9.3°
Drops below altitude 10° 15:50:50 10° 61° (ENE) 1,930 7.0 -8.8°
Sets 15:52:09 0° 65° (ENE) 2,532 8.2 -8.6°
